View from above orbital plane
|
View from above satellite
|
Ground track
|
The orbit data is extracted from the following two-line orbital elements,
1 39770U 14029E 21016.19434749 .00000589 00000-0 70028-4 0 9996
2 39770 97.9070 127.7620 0008899 356.3165 3.7985 14.88125305360691
Epoch (UTC): | 16 January 2021 04:39:51 |
Eccentricity: | 0.0008899 |
inclination: | 97.9070° |
perigee height: | 597 km |
apogee height: | 610 km |
right ascension of ascending node: | 127.7620° |
argument of perigee: | 356.3165° |
revolutions per day: | 14.88125305 |
mean anomaly at epoch: | 3.7985° |
orbit number at epoch: | 36069 |
The dashed part of the orbit path shows where the satellite is in the earth's shadow,
|
|